FW1349 Weather Reports


Display with metric or nautical units.
time (UTC)temp
F
wind
direction
speed
MPH
gust
MPH
rain 1hr
in
rain 24hr
in
rain mn
in
humidity
%
barometer
mb
20260903023016 81 0.0 0.0 0.00 0.07 0.07 70
20260903022016 81 0.0 0.0 0.00 0.07 0.07 69
20260903021057 82 0.0 0.0 0.00 0.07 0.07 69
20260903020036 82 0.0 0.0 0.00 0.07 0.07 68
20260903015016 82 0.0 0.0 0.00 0.07 0.07 67
20260903014016 83 0.0 0.0 0.00 0.07 0.07 66
20260903013017 84 0.0 0.0 0.00 0.07 0.07 64
20260903012015 84 0.0 0.0 0.00 0.07 0.07 63
20260903011036 85 0.0 0.0 0.00 0.07 0.07 63
20260903010016 85 0.0 0.0 0.00 0.07 0.07 62
20260903005016 86 0.0 0.0 0.00 0.07 0.07 60
20260903004016 86 0.0 0.0 0.00 0.07 0.07 59
20260903003017 87 0.0 0.0 0.00 0.07 0.07 58
20260903002035 87 0.0 0.0 0.00 0.07 0.07 57
20260903001016 88 0.0 0.0 0.00 0.07 0.07 56
20260903000015 89 0.0 0.0 0.00 0.07 0.07 54
20260902235015 90 0.0 0.0 0.00 0.07 0.07 53
20260902234016 90 0.0 0.0 0.00 0.07 0.07 52
20260902233015 91 0.0 0.0 0.00 0.07 0.07 51
20260902232017 92 0.0 1.0 0.00 0.07 0.07 49
20260902231017 93 0.0 2.0 0.00 0.07 0.07 48
20260902230038 93 203 1.0 2.0 0.00 0.07 0.07 46
20260902225017 93 0.0 2.0 0.00 0.07 0.07 47
20260902224017 93 0.0 2.0 0.00 0.07 0.07 48
20260902223017 94 248 1.0 3.0 0.00 0.07 0.07 47
20260902222018 94 315 1.0 3.0 0.00 0.07 0.07 46
20260902221017 94 248 1.0 3.0 0.00 0.07 0.07 48
20260902220017 94 293 1.0 3.0 0.00 0.07 0.07 46
20260902215037 94 315 2.0 4.0 0.00 0.07 0.07 47
20260902214058 93 270 1.0 2.0 0.00 0.07 0.07 46
20260902213017 93 338 1.0 2.0 0.00 0.07 0.07 47
20260902212016 93 180 2.0 4.0 0.00 0.07 0.07 46
20260902211017 94 315 2.0 4.0 0.00 0.07 0.07 46
20260902210017 93 338 1.0 3.0 0.00 0.07 0.07 48
20260902205017 92 248 2.0 5.0 0.00 0.07 0.07 49
20260902204018 92 338 2.0 4.0 0.00 0.07 0.07 48
20260902203017 92 225 2.0 4.0 0.00 0.07 0.07 49
20260902202017 92 315 2.0 4.0 0.00 0.07 0.07 48
20260902201037 91 315 2.0 4.0 0.00 0.07 0.07 50
20260902200017 91 315 1.0 4.0 0.00 0.07 0.07 48
20260902195037 90 158 1.0 4.0 0.00 0.07 0.07 50
20260902194016 90 180 2.0 4.0 0.00 0.07 0.07 51
20260902193016 89 248 2.0 4.0 0.00 0.07 0.07 52
20260902192037 89 135 2.0 5.0 0.00 0.07 0.07 52
20260902191017 89 315 1.0 4.0 0.00 0.07 0.07 53
20260902190016 89 315 2.0 4.0 0.00 0.07 0.07 52
20260902185016 88 270 1.0 4.0 0.00 0.07 0.07 53
20260902184016 87 338 1.0 3.0 0.00 0.07 0.07 54
20260902183016 87 270 2.0 4.0 0.00 0.07 0.07 55
20260902182017 87 135 2.0 4.0 0.00 0.07 0.07 56
20260902181037 86 248 1.0 5.0 0.00 0.07 0.07 58
20260902180016 85 338 1.0 4.0 0.00 0.07 0.07 60
20260902175016 84 113 1.0 4.0 0.00 0.07 0.07 60
20260902174016 84 338 2.0 4.0 0.00 0.07 0.07 59
20260902173016 83 113 1.0 4.0 0.00 0.07 0.07 62
20260902172016 82 293 1.0 3.0 0.00 0.07 0.07 61
20260902171016 82 158 1.0 5.0 0.00 0.07 0.07 63
20260902170016 82 225 1.0 4.0 0.00 0.07 0.07 65
20260902165016 81 45 1.0 3.0 0.00 0.07 0.07 64
20260902164016 81 180 1.0 3.0 0.00 0.07 0.07 64
20260902163016 81 90 1.0 3.0 0.00 0.07 0.07 66
20260902162016 80 0.0 1.0 0.00 0.07 0.07 65
20260902161015 80 90 1.0 3.0 0.00 0.07 0.07 67
20260902160015 80 68 1.0 3.0 0.00 0.07 0.07 68
20260902155036 79 113 1.0 2.0 0.00 0.07 0.07 68
20260902154016 78 270 2.0 5.0 0.00 0.07 0.07 69
20260902153015 77 45 2.0 4.0 0.00 0.07 0.07 71
20260902152015 77 135 1.0 2.0 0.00 0.07 0.07 74
20260902151018 76 293 1.0 4.0 0.00 0.07 0.07 76
20260902150017 75 293 1.0 3.0 0.00 0.07 0.07 78
20260902145017 73 0.0 2.0 0.00 0.07 0.07 80
20260902144038 72 0.0 3.0 0.00 0.07 0.07 84
20260902143018 70 0.0 2.0 0.00 0.07 0.07 88
20260902142017 69 0.0 2.0 0.00 0.07 0.07 89
20260902141017 68 90 1.0 3.0 0.00 0.07 0.07 90
20260902140017 68 0.0 2.0 0.00 0.07 0.07 90
20260902135017 68 0.0 2.0 0.00 0.07 0.07 90
20260902134038 67 0.0 1.0 0.00 0.07 0.07 91
20260902133018 67 135 1.0 3.0 0.00 0.07 0.07 91
20260902132017 67 0.0 2.0 0.00 0.07 0.07 92
20260902131018 66 0.0 2.0 0.00 0.07 0.07 92
20260902130017 66 0.0 0.0 0.00 0.07 0.07 92
20260902125017 66 0.0 0.0 0.00 0.07 0.07 92
20260902124018 66 0.0 0.0 0.00 0.07 0.07 92
20260902123016 66 0.0 0.0 0.00 0.07 0.07 92
20260902122017 66 0.0 0.0 0.00 0.07 0.07 92
20260902121017 66 0.0 0.0 0.00 0.07 0.07 91
20260902120016 66 0.0 0.0 0.00 0.07 0.07 91
20260902115017 66 0.0 0.0 0.00 0.07 0.07 91
20260902114037 66 0.0 0.0 0.00 0.07 0.07 91
20260902113017 66 0.0 0.0 0.00 0.07 0.07 91
20260902112016 66 0.0 0.0 0.00 0.07 0.07 90
20260902111516 66 0.0 0.0 0.00 0.07 0.07 90
20260902110537 66 0.0 0.0 0.00 0.07 0.07 90
20260902105516 66 0.0 1.0 0.00 0.07 0.07 90
20260902104537 66 0.0 2.0 0.00 0.07 0.07 90
20260902103516 66 0.0 0.0 0.00 0.07 0.07 90
20260902102517 66 0.0 1.0 0.00 0.07 0.07 90
20260902101536 66 0.0 0.0 0.00 0.07 0.07 90
20260902100516 66 0.0 1.0 0.00 0.07 0.07 90
20260902095536 66 0.0 0.0 0.00 0.07 0.07 90
20260902094517 66 0.0 1.0 0.00 0.07 0.07 89
20260902093537 66 23 1.0 2.0 0.00 0.07 0.07 89
20260902092517 66 248 1.0 4.0 0.00 0.07 0.07 89
20260902091516 66 0.0 3.0 0.00 0.07 0.07 89
20260902090517 66 0.0 0.0 0.00 0.07 0.07 89
20260902085516 66 0.0 0.0 0.00 0.07 0.07 88
20260902084516 67 0 1.0 2.0 0.00 0.07 0.07 88
20260902083537 67 0.0 2.0 0.00 0.07 0.07 88
20260902082557 67 0.0 2.0 0.01 0.07 0.07 88
20260902081515 67 0.0 1.0 0.02 0.07 0.07 88
20260902080516 68 0.0 1.0 0.03 0.07 0.07 88
20260902075536 68 0.0 1.0 0.05 0.07 0.07 87
20260902074515 68 0.0 1.0 0.06 0.07 0.07 86
20260902073515 68 0.0 2.0 0.06 0.07 0.07 85
20260902072516 69 0.0 3.0 0.06 0.06 0.06 85
20260902071516 69 0.0 1.0 0.05 0.05 0.05 85
20260902070517 70 0.0 2.0 0.04 0.04 0.04 85
20260902065517 70 225 1.0 2.0 0.02 0.02 0.02 86
20260902064517 71 158 2.0 5.0 0.01 0.01 0.01 87
20260902063518 71 180 2.0 6.0 0.01 0.01 0.01 87
20260902062517 72 0.0 1.0 0.00 0.00 0.00 87
20260902061517 71 0.0 0.0 0.00 0.00 0.00 86
20260902060518 71 0.0 0.0 0.00 0.00 0.00 86
20260902055517 72 0.0 2.0 0.00 0.00 0.00 87
20260902054537 72 0.0 0.0 0.00 0.00 0.00 87
20260902053518 72 0.0 0.0 0.00 0.00 0.00 87
20260902052517 72 0.0 1.0 0.00 0.00 0.00 86
20260902051538 72 68 1.0 2.0 0.00 0.00 0.00 85
20260902050517 72 0.0 0.0 0.00 0.00 0.00 85
20260902045536 72 0.0 0.0 0.00 0.00 0.00 84
20260902044557 72 0.0 0.0 0.00 0.00 0.00 83
20260902043516 72 0.0 0.0 0.00 0.00 0.00 83
20260902042516 72 0.0 0.0 0.00 0.00 0.00 82
20260902041517 73 0.0 0.0 0.00 0.00 0.00 81
20260902040537 73 0.0 0.0 0.00 0.00 0.00 81
20260902035516 73 0.0 0.0 0.00 0.00 0.00 81
20260902034516 73 0.0 0.0 0.00 0.00 0.00 81
20260902033537 74 0.0 0.0 0.00 0.00 0.00 80
20260902032536 74 0.0 0.0 0.00 0.00 0.00 79
20260902031537 74 0.0 0.0 0.00 0.00 0.00 77
20260902030516 75 0.0 0.0 0.00 0.00 0.00 76
20260902025516 75 0.0 0.0 0.00 0.00 0.00 75
20260902024516 75 0.0 0.0 0.00 0.00 0.00 76